sat.trackr.live / text

‹ back to catalog

YAOGAN-39 05C

NORAD 58559 · 2023-194C

PAYLOAD ACTIVE UNKNOWN

§ Identity

Operator
Country
PRC
Launch date
2023-12-10
Launch site
XICLF
Launch vehicle
Mass (kg)
RCS (m²)

External: N2YO · Heavens-Above · Gunter

§ Orbital elements

Epoch: 2026-09-21T22:03:59.715360Z

Period
94.95 min
Inclination
34.9900°
Eccentricity
0.0016119
Mean motion
15.16653301 rev/d
Perigee alt
504.9 km
Apogee alt
527.1 km
Semi-major
6,894.1 km
B*
1.6752e-4
RAAN
198.3334°
Arg perigee
170.9955°
Mean anomaly
189.1048°
Rev number
15,482

§ Raw data

YAOGAN-39 05C1 58559U 23194C   26264.91944115  .00003331  00000+0  16752-3 0  99982 58559  34.9900 198.3334 0016119 170.9955 189.1048 15.16653301154826

JSON: /api/v1/satellites/58559 · /tle

For live sub-satellite position, see the globe view (requires WebGL).

§ Visibility from observer

Set your observer location to see the next 7 days of passes ≥ 10°. The values pass through the URL so the page stays shareable.

No JS? Fill the form by hand. The geolocation button needs JavaScript.